FW1775 Weather Reports


time (UTC)temp
F
wind
direction
speed
knots
gust
knots
rain 1hr
in
rain 24hr
in
rain mn
in
humidity
%
barometer
mb
20260510164507 56 280 2.6 5.2 0.00 0.27 0.00 54 981.0
20260510164007 57 267 2.6 5.2 0.00 0.27 0.00 53 981.0
20260510162508 56 64 2.6 7.0 0.00 0.27 0.00 53 981.3
20260510162007 55 289 3.5 7.0 0.00 0.27 0.00 49 981.3
20260510161507 55 333 3.5 6.1 0.00 0.27 0.00 55 981.3
20260510161008 55 288 4.3 6.1 0.00 0.27 0.00 59 981.1
20260510160007 55 338 2.6 5.2 0.00 0.27 0.00 61 981.0
20260510155007 54 335 4.3 7.8 0.00 0.27 0.00 59 980.7
20260510154507 54 2 2.6 7.0 0.00 0.27 0.00 65 980.7
20260510154007 54 269 4.3 7.0 0.00 0.27 0.00 66 980.7
20260510153507 53 319 5.2 7.0 0.00 0.27 0.00 62 980.6
20260510153007 53 356 2.6 6.1 0.00 0.27 0.00 67 980.6
20260510152507 52 304 3.5 6.1 0.00 0.27 0.00 67 980.6
20260510152008 54 299 2.6 5.2 0.00 0.27 0.00 65 980.6
20260510151507 54 304 2.6 5.2 0.00 0.27 0.00 71 980.6
20260510151007 53 289 3.5 5.2 0.00 0.27 0.00 69 980.3
20260510150508 52 13 2.6 5.2 0.00 0.27 0.00 72 980.3
20260510150007 51 311 2.6 5.2 0.00 0.27 0.00 74 980.2
20260510145507 50 259 2.6 5.2 0.00 0.27 0.00 77 980.2
20260510145008 50 144 2.6 4.3 0.00 0.27 0.00 79 980.0
20260510144508 49 322 0.9 4.3 0.00 0.27 0.00 80 980.0
20260510144007 49 344 2.6 4.3 0.00 0.27 0.00 78 980.0
20260510143508 49 292 2.6 5.2 0.00 0.27 0.00 79 979.9
20260510143007 49 294 2.6 6.1 0.00 0.27 0.00 80 979.9
20260510142507 48 358 4.3 6.1 0.00 0.27 0.00 79 979.8
20260510142007 50 239 2.6 7.8 0.00 0.27 0.00 81 979.8
20260510141507 49 329 2.6 7.8 0.00 0.27 0.00 81 979.7
20260510141007 48 341 3.5 4.3 0.00 0.27 0.00 81 979.6
20260510140507 48 300 2.6 5.2 0.00 0.27 0.00 82 979.6
20260510140007 46 286 2.6 5.2 0.00 0.27 0.00 84 979.3
20260510135008 47 299 1.7 4.3 0.00 0.27 0.00 84 979.4
20260510134507 48 306 2.6 5.2 0.00 0.27 0.00 82 979.4
20260510134007 48 338 2.6 5.2 0.00 0.27 0.00 82 979.4
20260510133508 47 276 1.7 5.2 0.00 0.27 0.00 84 978.9
20260510133007 48 311 2.6 5.2 0.00 0.27 0.00 84 978.9
20260510132507 48 264 2.6 5.2 0.00 0.27 0.00 83 978.8
20260510132007 47 348 2.6 4.3 0.00 0.27 0.00 84 978.8
20260510131507 47 317 2.6 4.3 0.00 0.27 0.00 85 978.8
20260510131007 46 230 1.7 7.0 0.00 0.27 0.00 86 978.7
20260510130508 46 262 3.5 7.0 0.00 0.27 0.00 87 978.7
20260510125008 44 280 2.6 5.2 0.00 0.27 0.00 88 978.3
20260510124507 45 309 2.6 5.2 0.00 0.27 0.00 87 978.3
20260510124007 43 316 1.7 6.1 0.00 0.27 0.00 91 978.3
20260510123507 44 308 2.6 6.1 0.00 0.27 0.00 88 978.4
20260510123007 43 290 2.6 6.1 0.00 0.27 0.00 91 978.4
20260510122507 44 293 3.5 6.1 0.00 0.27 0.00 89 978.2
20260510122007 44 234 2.6 4.3 0.00 0.27 0.00 89 978.2
20260510121507 44 256 2.6 2.6 0.00 0.27 0.00 90 978.2
20260510121007 43 292 0.9 2.6 0.00 0.27 0.00 90 977.9
20260510120508 43 5 1.7 4.3 0.00 0.27 0.00 91 977.9
20260510120007 42 2 1.7 4.3 0.00 0.27 0.00 92 977.7
20260510115509 42 315 1.7 5.2 0.00 0.27 0.00 91 977.7
20260510113507 40 180 2.6 5.2 0.00 0.27 0.00 95 977.2
20260510112507 39 62 1.7 6.1 0.00 0.27 0.00 98 977.1
20260510112007 39 295 1.7 5.2 0.00 0.27 0.00 99 977.1
20260510111506 38 338 1.7 5.2 0.00 0.27 0.00 99 977.1
20260510111007 38 303 0.9 5.2 0.00 0.27 0.00 99 976.8
20260510110006 38 311 1.7 5.2 0.00 0.27 0.00 99 976.7
20260510105506 38 263 1.7 5.2 0.00 0.27 0.00 99 976.7
20260510104507 37 339 0.9 2.6 0.00 0.27 0.00 99 976.4
20260510103008 37 282 1.7 2.6 0.00 0.27 0.00 99 976.4
20260510102508 36 281 0.9 2.6 0.00 0.27 0.00 99 976.1
20260510102009 36 236 0.9 1.7 0.00 0.27 0.00 99 976.1
20260510101508 36 264 0.0 1.7 0.00 0.27 0.00 99 976.1
20260510101009 37 116 0.0 1.7 0.00 0.27 0.00 99 976.1
20260510100509 37 248 0.0 1.7 0.00 0.27 0.00 99 976.1
20260510095509 37 267 0.9 4.3 0.00 0.27 0.00 99 975.8
20260510095009 37 294 1.7 4.3 0.00 0.27 0.00 99 975.6
20260510094509 36 303 0.9 2.6 0.00 0.27 0.00 99 975.6
20260510094008 36 304 1.7 2.6 0.00 0.27 0.00 99 975.6
20260510093508 36 203 1.7 2.6 0.00 0.27 0.00 99 975.7
20260510093008 37 315 1.7 2.6 0.00 0.27 0.00 99 975.7
20260510092008 37 217 0.9 4.3 0.00 0.27 0.00 99 975.4
20260510091508 37 305 0.0 5.2 0.00 0.27 0.00 99 975.4
20260510091008 37 66 0.9 5.2 0.00 0.27 0.00 99 975.4
20260510090509 37 302 2.6 5.2 0.00 0.27 0.00 99 975.4
20260510085508 37 147 1.7 4.3 0.00 0.27 0.00 99 975.1
20260510085009 37 292 1.7 4.3 0.00 0.27 0.00 99 974.9
20260510084508 37 36 1.7 5.2 0.00 0.27 0.00 99 974.9
20260510084008 37 284 1.7 5.2 0.00 0.27 0.00 99 974.9
20260510083509 36 266 1.7 5.2 0.00 0.27 0.00 99 974.9
20260510082508 36 126 0.9 5.2 0.00 0.27 0.00 99 974.6
20260510082008 37 26 0.9 2.6 0.00 0.27 0.00 99 974.6
20260510081008 37 15 1.7 4.3 0.00 0.27 0.00 99 974.8
20260510080009 37 275 1.7 5.2 0.00 0.27 0.00 99 974.6
20260510075009 37 235 0.9 2.6 0.00 0.27 0.00 99 974.5
20260510074508 37 141 1.7 2.6 0.00 0.27 0.00 99 974.5
20260510074008 37 8 1.7 4.3 0.00 0.27 0.00 99 974.5
20260510073509 37 74 0.9 4.3 0.00 0.27 0.00 99 974.5
20260510072509 37 260 2.6 5.2 0.00 0.27 0.00 99 974.5
20260510072008 37 257 1.7 5.2 0.00 0.27 0.00 99 974.5
20260510070508 38 222 0.9 2.6 0.00 0.27 0.00 99 974.0
20260510065509 38 285 0.9 2.6 0.00 0.27 0.00 99 974.0
20260510064508 38 247 1.7 5.2 0.00 0.27 0.00 99 973.9
20260510064008 38 260 2.6 5.2 0.00 0.27 0.00 98 973.9
20260510063008 39 230 1.7 4.3 0.00 0.27 0.00 98 973.7
20260510062008 39 292 1.7 5.2 0.00 0.27 0.00 98 973.7
20260510061508 39 270 0.9 4.3 0.00 0.27 0.00 97 973.7
20260510061009 39 126 1.7 4.3 0.00 0.27 0.00 97 973.7
20260510055508 39 285 2.6 5.2 0.00 0.27 0.00 96 973.6
20260510055008 39 270 2.6 5.2 0.00 0.27 0.00 96 973.3
20260510054508 39 249 1.7 4.3 0.00 0.27 0.00 96 973.3
20260510054008 39 301 1.7 4.3 0.00 0.27 0.00 96 973.3
20260510053008 39 214 0.9 6.1 0.00 0.27 0.00 96 973.3
20260510051008 40 349 0.9 2.6 0.00 0.27 0.00 96 972.9
20260510050509 40 158 0.0 5.2 0.00 0.27 0.00 96 972.9
20260510050008 40 46 2.6 5.2 0.00 0.27 0.00 96 972.7
20260510045509 40 218 0.9 4.3 0.00 0.27 0.00 96 972.7
20260510045008 40 285 0.0 4.3 0.00 0.27 0.00 96 972.4
20260510044509 41 127 0.0 2.6 0.00 0.27 0.00 95 972.4
20260510044008 41 172 0.9 2.6 0.00 0.27 0.00 94 972.4
20260510043508 41 246 1.7 4.3 0.00 0.27 0.00 95 972.4
20260510043008 41 234 1.7 5.2 0.00 0.27 0.00 95 972.4
20260510042509 41 77 2.6 5.2 0.00 0.27 0.00 95 972.0
20260510042008 41 214 1.7 4.3 0.00 0.27 0.00 96 972.0
20260510041508 42 160 0.0 4.3 0.00 0.27 0.00 96 972.0
20260510041008 42 255 0.9 4.3 0.00 0.27 0.00 96 971.9
20260510040509 42 146 1.7 5.2 0.00 0.27 0.00 97 971.9
20260510040008 42 262 0.9 5.2 0.00 0.27 0.00 98 971.8
20260510035508 42 270 1.7 5.2 0.00 0.27 0.27 98 971.8
20260510035008 42 264 0.9 5.2 0.00 0.27 0.27 98 972.0
20260510034508 42 294 2.6 5.2 0.00 0.27 0.27 99 972.0
20260510034008 43 202 1.7 6.1 0.00 0.27 0.27 99 972.0
20260510033509 43 216 1.7 6.1 0.00 0.27 0.27 99 971.7
20260510032508 43 275 1.7 7.0 0.00 0.27 0.27 99 971.8
20260510032009 43 260 2.6 7.0 0.00 0.27 0.27 99 971.8
20260510031508 43 227 1.7 4.3 0.00 0.27 0.27 99 971.8
20260510031008 43 242 0.9 4.3 0.00 0.27 0.27 99 971.7
20260510030508 43 265 1.7 4.3 0.00 0.27 0.27 99 971.7
20260510030008 43 163 0.9 4.3 0.00 0.27 0.27 99 971.6
20260510025508 43 292 1.7 5.2 0.00 0.27 0.27 99 971.6
20260510024509 43 253 0.9 4.3 0.00 0.27 0.27 99 971.3
20260510024008 44 193 0.9 4.3 0.00 0.27 0.27 99 971.3
20260510023509 44 235 0.0 1.7 0.00 0.27 0.27 99 971.2
20260510022508 44 203 0.9 4.3 0.00 0.27 0.27 99 971.1
20260510022008 44 210 1.7 2.6 0.00 0.27 0.27 99 971.1
20260510021008 44 209 0.0 1.7 0.00 0.27 0.27 99 970.7
20260510020508 44 194 0.0 1.7 0.00 0.27 0.27 99 970.7
20260510020008 45 226 0.9 1.7 0.00 0.27 0.27 99 970.7
20260510015508 45 201 0.0 1.7 0.00 0.27 0.27 99 970.7
20260510014508 46 225 0.9 2.6 0.00 0.27 0.27 99 970.5
20260510014008 46 204 0.0 2.6 0.00 0.27 0.27 99 970.5
20260510013008 46 269 0.9 1.7 0.00 0.27 0.27 99 970.2
20260510012508 46 228 0.9 1.7 0.00 0.27 0.27 99 969.7
20260510011508 47 202 1.7 1.7 0.00 0.27 0.27 99 969.7
20260510011008 48 202 0.0 0.9 0.00 0.27 0.27 99 969.7
20260510010508 48 182 0.0 2.6 0.00 0.27 0.27 99 969.7
20260510010008 48 219 0.9 4.3 0.01 0.27 0.27 99 969.5
20260510005508 49 285 1.7 4.3 0.01 0.27 0.27 99 969.5
20260510005008 49 177 0.9 1.7 0.01 0.27 0.27 99 969.2
20260510004507 50 270 0.0 2.6 0.01 0.27 0.27 99 969.2
20260510004008 50 211 0.9 2.6 0.01 0.27 0.27 99 969.2
20260510003508 50 192 0.0 0.9 0.01 0.27 0.27 99 969.1
20260510003008 50 189 0.0 1.7 0.01 0.27 0.27 99 969.1
20260510002508 51 276 0.9 6.1 0.01 0.27 0.27 99 968.9
20260510001508 51 274 0.9 6.1 0.01 0.27 0.27 99 968.9
20260510001008 51 350 0.9 5.2 0.01 0.27 0.27 99 968.5
20260510000008 51 189 2.6 5.2 0.00 0.26 0.26 99 968.2
20260509235508 51 181 1.7 4.3 0.00 0.26 0.26 99 968.2
20260509235008 51 174 2.6 5.2 0.00 0.26 0.26 99 968.1
20260509234008 51 169 2.6 5.2 0.00 0.26 0.26 99 968.1
20260509233508 51 181 1.7 5.2 0.00 0.26 0.26 99 968.0
20260509232007 51 174 2.6 5.2 0.00 0.26 0.26 99 968.0
20260509231508 51 148 3.5 6.1 0.01 0.26 0.26 99 968.0
20260509231008 51 152 2.6 6.1 0.02 0.26 0.26 99 968.0
20260509230508 51 186 4.3 5.2 0.03 0.26 0.26 99 968.0
20260509230008 51 179 1.7 4.3 0.05 0.26 0.26 99 967.7
20260509225008 51 163 1.7 4.3 0.07 0.26 0.26 99 967.6
20260509224508 51 178 2.6 6.1 0.08 0.26 0.26 99 967.6
20260509224009 51 189 3.5 6.1 0.11 0.26 0.26 99 967.6
20260509223508 51 184 2.6 6.1 0.16 0.26 0.26 99 967.6
20260509223008 51 148 2.6 5.2 0.18 0.26 0.26 99 967.6
20260509222508 51 197 2.6 6.1 0.21 0.26 0.26 99 967.9
20260509222008 51 232 2.6 6.1 0.23 0.26 0.26 99 967.9
20260509221008 51 171 2.6 5.2 0.24 0.24 0.24 99 968.2
20260509220008 51 188 2.6 7.0 0.21 0.21 0.21 99 968.4
20260509215507 52 267 4.3 7.0 0.19 0.19 0.19 99 968.4
20260509215008 52 243 1.7 6.1 0.19 0.19 0.19 99 968.3
20260509214008 52 161 5.2 13.9 0.15 0.15 0.15 99 968.3
20260509213508 52 150 7.8 13.9 0.10 0.10 0.10 99 967.6
20260509213008 53 168 4.3 8.7 0.08 0.08 0.08 99 967.6
20260509212508 54 236 6.1 8.7 0.05 0.05 0.05 98 967.2
20260509212008 54 149 4.3 8.7 0.03 0.03 0.03 97 967.2
20260509211508 55 188 6.1 10.4 0.01 0.01 0.01 94 967.2
20260509210507 56 158 7.0 10.4 0.00 0.00 0.00 89 967.0
20260509210008 57 186 7.0 12.2 0.00 0.00 0.00 85 966.7
20260509205508 58 174 6.1 12.2 0.00 0.00 0.00 83 966.7
20260509205008 59 156 7.8 10.4 0.00 0.00 0.00 81 966.4
20260509204508 59 171 7.8 10.4 0.00 0.00 0.00 80 966.4
20260509203508 60 167 6.1 11.3 0.00 0.00 0.00 80 966.4
20260509203008 60 150 7.8 12.2 0.00 0.00 0.00 79 966.4
20260509202508 61 124 7.0 12.2 0.00 0.00 0.00 78 966.6
20260509202008 61 170 6.1 13.9 0.00 0.00 0.00 77 966.6
20260509201508 61 130 8.7 13.9 0.00 0.00 0.00 77 966.7
20260509201008 62 145 6.1 10.4 0.00 0.00 0.00 77 966.8
20260509195507 62 145 5.2 8.7 0.00 0.00 0.00 76 967.2
20260509194507 61 167 6.1 8.7 0.00 0.00 0.00 76 967.2
20260509194008 61 124 5.2 8.7 0.00 0.00 0.00 75 967.2
20260509193507 62 139 6.1 8.7 0.00 0.00 0.00 75 967.3
20260509193007 61 171 6.1 8.7 0.00 0.00 0.00 74 967.3
20260509192008 60 158 5.2 7.8 0.00 0.00 0.00 76 967.4
20260509191508 60 58 5.2 7.8 0.00 0.00 0.00 76 967.4
20260509191007 59 164 5.2 7.8 0.00 0.00 0.00 77 967.5
20260509190507 59 180 5.2 7.8 0.00 0.00 0.00 77 967.5
20260509190007 60 132 5.2 7.0 0.00 0.00 0.00 77 967.8
20260509185007 60 180 5.2 7.0 0.00 0.00 0.00 78 967.9
20260509184507 60 171 3.5 7.0 0.00 0.00 0.00 77 967.9
20260509184008 59 157 5.2 7.0 0.00 0.00 0.00 77 967.9
20260509183507 59 152 4.3 7.0 0.00 0.00 0.00 77 968.1
20260509183007 59 158 4.3 7.8 0.00 0.00 0.00 77 968.1
20260509182507 59 188 5.2 7.8 0.00 0.00 0.00 77 968.2
20260509182007 59 136 5.2 7.8 0.00 0.00 0.00 77 968.2
20260509181507 60 138 6.1 8.7 0.00 0.00 0.00 78 968.3
20260509181008 60 167 6.1 8.7 0.00 0.00 0.00 77 968.5
20260509180507 61 145 5.2 8.7 0.00 0.00 0.00 75 968.5
20260509180007 62 142 7.0 12.2 0.00 0.00 0.00 74 968.8
20260509175007 61 171 8.7 13.0 0.00 0.00 0.00 74 968.9
20260509174507 62 130 7.8 13.0 0.00 0.00 0.00 73 968.9
20260509174007 62 180 6.1 8.7 0.00 0.00 0.00 74 968.9
20260509173507 62 137 7.0 8.7 0.00 0.00 0.00 74 969.0
20260509173008 62 165 7.8 8.7 0.00 0.00 0.00 72 969.0
20260509172507 63 138 5.2 10.4 0.00 0.00 0.00 74 969.3
20260509172007 62 148 7.8 11.3 0.00 0.00 0.00 74 969.3
20260509171507 63 142 7.8 11.3 0.00 0.00 0.00 74 969.3
20260509171008 64 147 5.2 10.4 0.00 0.00 0.00 72 969.4
20260509165507 61 168 7.8 12.2 0.00 0.00 0.00 75 969.7
20260509165007 62 178 7.8 10.4 0.00 0.00 0.00 73 970.1